World > North America > United States > Ohio > Brooklyn Heights

Hourly Brooklyn Heights, OH Regional Weather

Feedback E-mail the Weather

Quick WX

Brooklyn Heights, OH Weather Maps

°F °C°F °C
Brooklyn Heights Weather Map
UTC Time: 8/15/2022, 04:26
Your Time:

Brooklyn Heights, OH Regional Weather

Expires:202208150500;;119595
ASUS41 KCLE 150410
RWRCLE
OHIO REGIONAL WEATHER ROUNDUP
NATIONAL WEATHER SERVICE WILMINGTON, OH
1200 AM EDT MON AUG 15 2022

NOTE: "FAIR" INDICATES FEW OR NO CLOUDS BELOW 12,000 FEET WITH NO
SIGNIFICANT WEATHER AND/OR OBSTRUCTIONS TO VISIBILITY.


OHZ009>014-019>023-028>033-038-089-150500-
   NORTHEAST OHIO
  
CITY           SKY/WX    TMP DP  RH WIND       PRES   REMARKS
CLE-HOPKINS    CLOUDY    68  60  75 CALM      29.99R                  
CLE-LAKEFRONT  CLOUDY    72  59  63 CALM      29.99R                  
CUY CO. ARPT   CLOUDY    67  59  77 E3        30.02S                  
LORAIN-ELYRIA  CLOUDY    66  62  87 CALM      30.00S                  
ASHTABULA      FAIR      62  58  86 CALM      30.01S                  
AKRON-CANTON   CLOUDY    66  59  78 SE5       30.00S                  
WOOSTER        CLOUDY    63  61  93 E6        30.01R                  
MANSFIELD      CLOUDY    64  61  90 CALM      30.00R                  
YOUNGSTOWN     CLOUDY    62  58  86 CALM      30.01S                  
$$
 

SKY/WX - Weather  TMP - Temperature  DP - Dew Point  RH - Humidity
WIND - Wind Direction/Speed PRES - Barometric Pressure VSB - Visibility
WCI - Wind Chill Index E13G22 Wind - East Wind 13 mph/Gusts of 22 mph

Trending Headlines

Brooklyn Heights Radar Loop



Brooklyn Heights Quick Facts


National Two Day Weather Forecast


E-mail the Brooklyn Heights Weather Forecast

Voice your opinion or tell us about page issues...